Weather in Soma Bay

Egypt     26°50′55″N   33°59′04″E
temp.,
°C
wind,
m/s
gust,
m/s
humid.,
%
clouds,
%
prec.,
mm/h
press.,
hPa
HPBL,
m
26 june, sun
sun2623:00+31nw812390 0.0 1005123
02:00+29nnw1116480 0.0 1006331
05:00+28n913500 0.0 1007326
08:00+28n911490 0.0 1008365
11:00+28nne1011600 0.0 1008272
14:00+29n912560 0.0 1006263
17:00+30n811510 0.0 1005180
20:00+29nnw45570 0.0 100661
27 june, mon
mon2723:00+31nw58400 0.0 100674
02:00+30nnw811400 0.0 1006132
05:00+29nnw814450 0.0 1007232
08:00+30nnw912400 0.0 1007200
11:00+30nne911520 0.0 1007160
14:00+30nne911530 0.0 1005157
17:00+30n69560 0.0 1004109
20:00+31nnw711450 0.0 100597
28 june, tue
tue2823:00+32nw913370 0.0 1005120
02:00+30nw1117450 0.0 1005288
05:00+29nnw69510 0.0 1005149
08:00+30n67500 0.0 1006121
11:00+29nne911590 0.0 1005190
14:00+30nne67550 0.0 1004109
17:00+31n78450 0.0 100497
20:00+30nw55440 0.0 100543
29 june, wed
wed2923:00+31wnw33440 0.0 100519
02:00+30wnw33440 0.0 100412
05:00+29nnw57480 0.0 1005114
08:00+30nnw55470 0.0 100696
11:00+29ne77630 0.0 1005125
14:00+29ne44640 0.0 100481
17:00+30n33570 0.0 100336
20:00+31nw33480 0.0 100412
30 june, thu
thu3023:00+31w22470 0.0 100512
02:00+30wnw33440 0.0 100415
05:00+29nnw45480 0.0 100551
08:00+31nnw67440 0.0 1006129
11:00+30nne89580 0.0 1005117
14:00+30nne55570 0.0 100479
17:00+31n55520 0.0 100366
20:00+31nw55490 0.0 100442